Queralbs





Hora UTC 21:10
Temperatura -1.7 ºC
Humitat 72.0 %
Pressió 1005.0 hPa
Pluja 0.0 mm
Velocitat vent 1.6 km/h
Direcció vent WNW
Radiació solar 0.0 W/m²

Dades diàries 2019-11-15



Hora UTC (hivern +1h; estiu +2h)
Temperatura (ºC) Humitat (%) Pressió (hPa) Velocitat vent (km/h) Precipitació (mm) Radiació solar (W/m²)
Hora UTC Aire Humitat Pressió Vel. Dir. Vel. Max Dir. Intent. màx 5 min. Rad. Sol.
00:05 -1.8 75.0 999.1 0.0 NW 0.0 0.0 0.0
00:10 -1.9 75.0 999.1 1.6 NW 3.2 0.0 0.0
00:15 -2.1 75.0 999.0 0.0 NW 3.2 0.0 0.0
00:20 -2.1 75.0 998.8 3.2 NW 4.8 0.0 0.0
00:25 -2.2 75.0 999.1 1.6 NW 4.8 0.0 0.0
00:30 -2.2 75.0 998.9 3.2 NW 3.2 0.0 0.0
00:35 -2.3 75.0 999.1 1.6 NW 3.2 0.0 0.0
00:40 -2.3 74.0 999.0 1.6 NW 3.2 0.0 0.0
00:45 -2.4 74.0 999.1 3.2 NW 4.8 0.0 0.0
00:50 -2.4 75.0 999.0 1.6 NW 4.8 0.0 0.0
00:55 -2.5 74.0 999.0 1.6 NW 4.8 0.0 0.0
01:00 -2.5 74.0 998.9 0.0 NW 4.8 0.0 0.0
01:05 -2.6 74.0 998.8 0.0 NW 3.2 0.0 0.0
01:10 -2.7 74.0 999.0 0.0 NW 3.2 0.0 0.0
01:15 -2.7 74.0 999.0 0.0 NW 1.6 0.0 0.0
01:20 -2.8 74.0 999.2 1.6 NW 3.2 0.0 0.0
01:25 -2.8 74.0 999.2 0.0 NW 3.2 0.0 0.0
01:30 -2.8 74.0 999.4 1.6 NW 3.2 0.0 0.0
01:35 -2.9 74.0 999.6 0.0 NW 3.2 0.0 0.0
01:40 -2.9 74.0 999.6 0.0 NW 3.2 0.0 0.0
01:45 -3.1 74.0 999.6 0.0 NW 3.2 0.0 0.0
01:50 -3.1 74.0 999.5 1.6 NW 3.2 0.0 0.0
01:55 -3.1 74.0 999.7 3.2 NW 4.8 0.0 0.0
02:00 -3.1 75.0 999.8 3.2 W 4.8 0.0 0.0
02:05 -3.1 74.0 999.7 3.2 WNW 11.3 0.0 0.0
02:10 -3.1 74.0 999.9 0.0 WNW 11.3 0.0 0.0
02:15 -3.1 74.0 999.9 1.6 WNW 3.2 0.0 0.0
02:20 -3.1 74.0 1000.1 1.6 N 6.4 0.0 0.0
02:25 -3.2 74.0 1000.2 3.2 NNW 6.4 0.0 0.0
02:30 -3.2 74.0 1000.3 1.6 NNW 6.4 0.0 0.0
02:35 -3.2 74.0 1000.2 1.6 NW 6.4 0.0 0.0
02:40 -3.3 74.0 1000.2 0.0 NW 3.2 0.0 0.0
02:45 -3.3 74.0 1000.2 0.0 NW 1.6 0.0 0.0
02:50 -3.3 74.0 1000.2 1.6 NW 3.2 0.0 0.0
02:55 -3.4 74.0 1000.1 3.2 NW 3.2 0.0 0.0
03:00 -3.4 74.0 1000.0 0.0 NW 3.2 0.0 0.0
03:05 -3.5 74.0 1000.1 0.0 NW 3.2 0.0 0.0
03:10 -3.5 74.0 1000.0 1.6 NW 1.6 0.0 0.0
03:15 -3.5 74.0 1000.1 1.6 NW 3.2 0.0 0.0
03:20 -3.6 74.0 1000.1 0.0 NNW 4.8 0.0 0.0
03:25 -3.6 74.0 1000.1 0.0 NNW 4.8 0.0 0.0
03:30 -3.7 74.0 1000.1 1.6 NNW 4.8 0.0 0.0
03:35 -3.7 74.0 1000.1 0.0 NNW 4.8 0.0 0.0
03:40 -3.7 74.0 1000.1 0.0 NNW 1.6 0.0 0.0
03:45 -3.7 74.0 1000.1 0.0 NNW 1.6 0.0 0.0
03:50 -3.7 73.0 1000.1 1.6 NNW 1.6 0.0 0.0
03:55 -3.7 74.0 1000.1 0.0 NNW 3.2 0.0 0.0
04:00 -3.8 73.0 1000.1 1.6 NNW 3.2 0.0 0.0
04:05 -3.8 73.0 1000.1 3.2 NNW 3.2 0.0 0.0
04:10 -3.8 73.0 1000.0 1.6 NNW 3.2 0.0 0.0
04:15 -3.8 73.0 1000.0 0.0 NNW 3.2 0.0 0.0
04:20 -3.7 73.0 1000.0 0.0 NNW 1.6 0.0 0.0
04:25 -3.8 73.0 1000.2 0.0 NNW 0.0 0.0 0.0
04:30 -3.8 73.0 1000.3 0.0 NNW 0.0 0.0 0.0
04:35 -3.8 73.0 1000.1 0.0 NNW 0.0 0.0 0.0
04:40 -3.8 73.0 1000.2 0.0 NNW 0.0 0.0 0.0
04:45 -3.8 73.0 1000.2 0.0 NNW 0.0 0.0 0.0
04:50 -3.8 73.0 1000.2 0.0 NNW 0.0 0.0 0.0
04:55 -3.8 73.0 1000.2 0.0 NNW 0.0 0.0 0.0
05:00 -3.8 73.0 1000.1 0.0 NNW 0.0 0.0 0.0
05:05 -3.8 73.0 1000.0 0.0 NNW 0.0 0.0 0.0
05:10 -3.8 73.0 1000.1 0.0 NNW 0.0 0.0 0.0
05:15 -3.8 73.0 1000.1 0.0 NNW 0.0 0.0 0.0
05:20 -3.9 73.0 1000.1 0.0 NNW 0.0 0.0 0.0
05:25 -3.9 72.0 1000.1 0.0 NNW 0.0 0.0 0.0
05:30 -3.8 73.0 1000.3 0.0 NNW 0.0 0.0 0.0
05:35 -3.9 73.0 1000.2 0.0 NNW 0.0 0.0 0.0
05:40 -3.9 73.0 1000.3 0.0 NNW 0.0 0.0 0.0
05:45 -3.9 73.0 1000.3 0.0 NNW 0.0 0.0 0.0
05:50 -3.9 73.0 1000.3 0.0 NNW 0.0 0.0 0.0
05:55 -4.0 73.0 1000.3 0.0 NNW 0.0 0.0 0.0
06:00 -4.0 73.0 1000.3 0.0 NNW 0.0 0.0 0.0
06:05 -4.0 73.0 1000.4 0.0 NNW 0.0 0.0 0.0
06:10 -4.1 73.0 1000.4 0.0 NNW 0.0 0.0 0.0
06:15 -4.2 73.0 1000.5 0.0 NNW 0.0 0.0 0.0
06:20 -4.2 73.0 1000.5 0.0 NNW 0.0 0.0 0.0
06:25 -4.1 72.0 1000.4 0.0 NNW 0.0 0.0 0.0
06:30 -4.2 72.0 1000.3 0.0 NNW 0.0 0.0 0.0
06:35 -4.1 72.0 1000.3 0.0 NNW 0.0 0.0 0.0
06:40 -4.1 72.0 1000.4 0.0 NNW 0.0 0.0 0.0
06:45 -4.1 72.0 1000.6 0.0 NNW 3.2 0.0 5.0
06:50 -4.1 72.0 1000.6 1.6 NNW 3.2 0.0 7.0
06:55 -4.1 73.0 1000.8 0.0 NNW 3.2 0.0 11.0
07:00 -4.1 72.0 1000.8 1.6 NNW 3.2 0.0 12.0
07:05 -4.1 73.0 1001.0 0.0 NNW 3.2 0.0 14.0
07:10 -4.1 73.0 1001.1 0.0 NNW 1.6 0.0 16.0
07:15 -4.0 73.0 1001.4 0.0 NNW 3.2 0.0 19.0
07:20 -3.9 73.0 1001.4 0.0 NNW 3.2 0.0 21.0
07:25 -3.8 73.0 1001.6 0.0 NNW 1.6 0.0 23.0
07:30 -3.7 73.0 1001.6 0.0 NNW 1.6 0.0 26.0
07:35 -3.7 73.0 1001.5 0.0 NNW 1.6 0.0 30.0
07:40 -3.5 73.0 1001.4 0.0 NNW 3.2 0.0 62.0
07:45 -3.3 73.0 1001.7 0.0 NNW 3.2 0.0 84.0
07:50 -3.1 73.0 1001.8 1.6 NNW 3.2 0.0 97.0
07:55 -2.7 73.0 1001.8 0.0 NNW 3.2 0.0 107.0
08:00 -2.2 74.0 1002.0 0.0 NNW 1.6 0.0 153.0
08:05 -1.8 72.0 1002.0 0.0 NNW 1.6 0.0 144.0
08:10 -1.5 70.0 1002.1 1.6 NNW 3.2 0.0 171.0
08:15 -1.1 72.0 1002.2 1.6 NW 3.2 0.0 185.0
08:20 -0.8 71.0 1002.1 3.2 NNW 3.2 0.0 206.0
08:25 -0.8 71.0 1002.2 1.6 ENE 4.8 0.0 225.0
08:30 -0.7 72.0 1002.2 1.6 ENE 4.8 0.0 237.0
08:35 -0.5 72.0 1002.3 0.0 ENE 3.2 0.0 192.0
08:40 -0.3 70.0 1002.2 1.6 E 4.8 0.0 186.0
08:45 0.0 71.0 1002.2 1.6 E 4.8 0.0 243.0
08:50 0.3 71.0 1002.1 1.6 ESE 3.2 0.0 287.0
08:55 0.5 70.0 1002.1 3.2 ESE 4.8 0.0 206.0
09:00 0.7 69.0 1002.0 1.6 ESE 4.8 0.0 348.0
09:05 0.7 67.0 1002.0 1.6 ESE 4.8 0.0 211.0
09:10 0.6 67.0 1002.3 4.8 ESE 4.8 0.0 369.0
09:15 0.8 69.0 1002.1 4.8 SE 4.8 0.0 380.0
09:20 0.8 68.0 1002.2 6.4 S 6.4 0.0 388.0
09:25 0.8 67.0 1002.3 0.0 S 6.4 0.0 403.0
09:30 1.0 66.0 1002.2 6.4 SSE 6.4 0.0 413.0
09:35 1.1 67.0 1002.3 3.2 SSE 8.0 0.0 418.0
09:40 1.3 67.0 1002.4 3.2 SSE 4.8 0.0 431.0
09:45 1.4 69.0 1002.4 3.2 SE 8.0 0.0 427.0
09:50 1.7 68.0 1002.6 3.2 SE 8.0 0.0 441.0
09:55 1.9 66.0 1002.6 3.2 SE 8.0 0.0 462.0
10:00 1.9 65.0 1002.6 6.4 E 8.0 0.0 455.0
10:05 2.1 67.0 1002.4 3.2 ESE 8.0 0.0 483.0
10:10 2.2 64.0 1002.4 3.2 SE 8.0 0.0 464.0
10:15 2.3 64.0 1002.4 3.2 SE 8.0 0.0 496.0
10:20 2.7 65.0 1002.3 0.0 SSE 6.4 0.0 531.0
10:25 2.9 61.0 1002.4 3.2 SE 6.4 0.0 529.0
10:30 3.2 64.0 1002.2 6.4 S 6.4 0.0 564.0
10:35 3.3 61.0 1002.2 3.2 SE 6.4 0.0 554.0
10:40 3.4 63.0 1002.0 6.4 SSE 9.7 0.0 531.0
10:45 3.4 62.0 1001.9 4.8 SSE 9.7 0.0 508.0
10:50 3.5 61.0 1001.7 8.0 S 11.3 0.0 559.0
10:55 3.1 60.0 1001.7 4.8 S 12.9 0.0 139.0
11:00 2.7 59.0 1001.5 0.0 SSW 12.9 0.0 151.0
11:05 2.6 59.0 1001.5 6.4 S 8.0 0.0 566.0
11:10 2.5 61.0 1001.3 3.2 S 6.4 0.0 162.0
11:15 2.4 60.0 1001.3 1.6 S 6.4 0.0 130.0
11:20 2.4 62.0 1001.3 4.8 S 6.4 0.0 118.0
11:25 2.4 64.0 1001.3 3.2 S 6.4 0.0 139.0
11:30 2.5 62.0 1001.1 4.8 S 4.8 0.0 169.0
11:35 2.6 61.0 1001.2 1.6 S 4.8 0.0 229.0
11:40 2.7 61.0 1001.2 1.6 S 4.8 0.0 255.0
11:45 2.8 62.0 1001.0 9.7 E 9.7 0.0 239.0
11:50 3.1 62.0 1001.1 4.8 S 8.0 0.0 325.0
11:55 3.3 59.0 1000.8 1.6 E 8.0 0.0 243.0
12:00 3.3 60.0 1000.9 3.2 SE 6.4 0.0 239.0
12:05 3.4 60.0 1000.8 4.8 S 6.4 0.0 195.0
12:10 3.4 59.0 1000.8 3.2 S 8.0 0.0 179.0
12:15 3.3 59.0 1000.7 0.0 NW 8.0 0.0 186.0
12:20 3.3 59.0 1000.6 3.2 S 8.0 0.0 163.0
12:25 3.4 60.0 1000.6 3.2 SE 9.7 0.0 162.0
12:30 3.4 60.0 1000.5 6.4 SSE 9.7 0.0 181.0
12:35 3.4 59.0 1000.5 6.4 S 8.0 0.0 171.0
12:40 3.4 59.0 1000.3 0.0 S 8.0 0.0 167.0
12:45 3.6 58.0 1000.4 0.0 S 6.4 0.0 178.0
12:50 3.8 58.0 1000.3 3.2 S 6.4 0.0 202.0
12:55 3.8 58.0 1000.3 3.2 SW 6.4 0.0 244.0
13:00 4.1 57.0 1000.2 3.2 SSE 8.0 0.0 250.0
13:05 4.2 55.0 1000.3 1.6 SSE 8.0 0.0 638.0
13:10 4.7 57.0 1000.3 6.4 SSE 12.9 0.0 606.0
13:15 5.2 54.0 1000.3 1.6 SSE 12.9 0.0 601.0
13:20 5.4 54.0 1000.1 4.8 ESE 8.0 0.0 589.0
13:25 5.4 53.0 1000.2 8.0 S 8.0 0.0 207.0
13:30 5.4 52.0 1000.2 1.6 SSE 8.0 0.0 211.0
13:35 5.7 52.0 1000.1 12.9 SSE 12.9 0.0 517.0
13:40 5.8 51.0 1000.0 3.2 SSE 19.3 0.0 504.0
13:45 5.8 51.0 999.8 1.6 S 19.3 0.0 446.0
13:50 5.9 50.0 1000.0 9.7 SSW 14.5 0.0 427.0
13:55 5.8 51.0 999.8 6.4 S 14.5 0.0 392.0
14:00 5.8 50.0 999.8 8.0 SSW 16.1 0.0 376.0
14:05 5.8 50.0 1000.0 6.4 S 16.1 0.0 376.0
14:10 5.8 50.0 999.9 12.9 S 17.7 0.0 302.0
14:15 5.7 49.0 1000.0 6.4 SSE 17.7 0.0 355.0
14:20 5.6 50.0 999.9 0.0 S 14.5 0.0 285.0
14:25 5.6 51.0 999.9 3.2 ESE 14.5 0.0 304.0
14:30 5.5 49.0 999.8 6.4 ESE 12.9 0.0 290.0
14:35 5.3 48.0 999.9 1.6 E 12.9 0.0 246.0
14:40 4.9 46.0 999.9 1.6 ESE 8.0 0.0 49.0
14:45 4.6 49.0 1000.0 8.0 SW 11.3 0.0 49.0
14:50 4.1 50.0 999.9 4.8 SSW 9.7 0.0 46.0
14:55 3.7 51.0 999.9 4.8 SW 12.9 0.0 40.0
15:00 3.3 53.0 1000.0 1.6 SSW 12.9 0.0 46.0
15:05 3.0 53.0 1000.1 4.8 WSW 12.9 0.0 49.0
15:10 2.8 55.0 1000.2 4.8 ENE 11.3 0.0 40.0
15:15 2.7 56.0 1000.4 1.6 E 11.3 0.0 40.0
15:20 2.6 58.0 1000.3 4.8 E 11.3 0.0 42.0
15:25 2.4 59.0 1000.4 1.6 NNE 8.0 0.0 39.0
15:30 2.3 60.0 1000.4 3.2 N 8.0 0.0 39.0
15:35 2.1 59.0 1000.4 3.2 NE 6.4 0.0 44.0
15:40 1.9 59.0 1000.5 3.2 N 6.4 0.0 53.0
15:45 1.9 59.0 1000.6 3.2 NNE 6.4 0.0 62.0
15:50 1.9 60.0 1000.8 0.0 E 6.4 0.0 60.0
15:55 1.9 60.0 1000.8 3.2 NE 4.8 0.0 53.0
16:00 1.8 60.0 1000.9 3.2 NNE 4.8 0.0 37.0
16:05 1.7 62.0 1001.1 0.0 NNE 4.8 0.0 26.0
16:10 1.6 63.0 1001.2 8.0 NE 8.0 0.0 19.0
16:15 1.5 64.0 1001.2 0.0 SSE 8.0 0.0 12.0
16:20 1.4 65.0 1001.3 1.6 SE 8.0 0.0 9.0
16:25 1.3 66.0 1001.3 3.2 SSE 4.8 0.0 5.0
16:30 1.2 66.0 1001.2 1.6 NW 6.4 0.0 0.0
16:35 1.1 67.0 1001.4 1.6 NNW 6.4 0.0 0.0
16:40 0.9 67.0 1001.4 0.0 NNW 4.8 0.0 0.0
16:45 0.8 68.0 1001.5 0.0 NNW 3.2 0.0 0.0
16:50 0.7 68.0 1001.6 1.6 NNW 3.2 0.0 0.0
16:55 0.7 69.0 1001.6 0.0 NW 4.8 0.0 0.0
17:00 0.5 70.0 1001.5 0.0 NW 3.2 0.0 0.0
17:05 0.4 70.0 1001.5 3.2 NNW 4.8 0.0 0.0
17:10 0.3 70.0 1001.7 1.6 NNW 4.8 0.0 0.0
17:15 0.2 70.0 1001.8 1.6 NNW 3.2 0.0 0.0
17:20 0.0 71.0 1001.8 0.0 NNW 3.2 0.0 0.0
17:25 -0.1 71.0 1001.8 1.6 NW 3.2 0.0 0.0
17:30 -0.2 71.0 1001.8 1.6 NW 3.2 0.0 0.0
17:35 -0.3 72.0 1002.0 3.2 WNW 4.8 0.0 0.0
17:40 -0.3 72.0 1002.2 3.2 W 4.8 0.0 0.0
17:45 -0.4 72.0 1002.4 0.0 W 4.8 0.0 0.0
17:50 -0.5 72.0 1002.5 3.2 WSW 3.2 0.0 0.0
17:55 -0.4 73.0 1002.6 0.0 WSW 4.8 0.0 0.0
18:00 -0.3 73.0 1002.7 0.0 WSW 4.8 0.0 0.0
18:05 -0.2 73.0 1002.8 4.8 WSW 4.8 0.0 0.0
18:10 -0.2 74.0 1002.9 0.0 WSW 4.8 0.0 0.0
18:15 -0.1 73.0 1003.0 0.0 WSW 3.2 0.0 0.0
18:20 0.0 73.0 1002.9 0.0 WSW 1.6 0.0 0.0
18:25 0.1 73.0 1003.1 1.6 WSW 3.2 0.0 0.0
18:30 0.1 73.0 1003.1 1.6 W 4.8 0.0 0.0
18:35 0.1 73.0 1003.3 1.6 W 4.8 0.0 0.0
18:40 -0.1 72.0 1003.2 3.2 W 4.8 0.0 0.0
18:45 -0.1 72.0 1003.3 1.6 W 4.8 0.0 0.0
18:50 -0.2 72.0 1003.3 0.0 W 3.2 0.0 0.0
18:55 -0.3 72.0 1003.3 3.2 W 3.2 0.0 0.0
19:00 -0.4 72.0 1003.5 1.6 W 3.2 0.0 0.0
19:05 -0.4 73.0 1003.5 1.6 W 3.2 0.0 0.0
19:10 -0.5 73.0 1003.5 0.0 W 3.2 0.0 0.0
19:15 -0.6 73.0 1003.5 0.0 W 3.2 0.0 0.0
19:20 -0.6 73.0 1003.5 1.6 W 3.2 0.0 0.0
19:25 -0.6 73.0 1003.5 3.2 W 4.8 0.0 0.0
19:30 -0.6 73.0 1003.5 1.6 W 4.8 0.0 0.0
19:35 -0.6 73.0 1003.6 1.6 NNW 6.4 0.0 0.0
19:35 -0.7 73.0 1003.6 3.2 WNW 6.4 0.0 0.0
19:45 0.0
19:50 0.0
19:55 -0.9 73.0 1003.2 1.6 WNW 4.8 0.0 0.0
20:00 -1.0 73.0 1003.4 0.0 WNW 3.2 0.0 0.0
20:05 -1.1 73.0 1003.6 0.0 WNW 3.2 0.0 0.0
20:10 -1.2 73.0 1003.7 1.6 WNW 4.8 0.0 0.0
20:15 -1.3 73.0 1003.8 1.6 WNW 4.8 0.0 0.0
20:20 -1.4 73.0 1004.0 0.0 WNW 4.8 0.0 0.0
20:25 -1.4 73.0 1003.9 1.6 WNW 3.2 0.0 0.0
20:30 -1.4 73.0 1004.1 3.2 WNW 3.2 0.0 0.0
20:35 -1.3 73.0 1004.3 1.6 WNW 6.4 0.0 0.0
20:40 -1.3 73.0 1004.4 1.6 WNW 6.4 0.0 0.0
20:45 -1.3 73.0 1004.4 3.2 WNW 3.2 0.0 0.0
20:50 -1.3 73.0 1004.6 1.6 WNW 3.2 0.0 0.0
20:55 -1.4 73.0 1004.9 1.6 WNW 3.2 0.0 0.0
21:00 -1.4 73.0 1004.9 3.2 WNW 4.8 0.0 0.0
21:05 -1.6 72.0 1005.0 3.2 WNW 4.8 0.0 0.0
21:10 -1.7 72.0 1005.0 1.6 WNW 4.8 0.0 0.0
Màxima 5.9 75.0 1005.0 12.9 S 19.3 0.0 638.0
Mínima -4.2 46.0 998.8
Total 0.0